Montoursville, PA

3:59 PM EDT on August 25, 2016 (GMT -0400)
Williamsport Rgnl

Weather History for KIPT - March, 2014

Change the Weather History Date:

Wednesday, March 26, 2014

  Actual Average Record
Temperature  
Mean Temperature 26 °F 42 °F  
Max Temperature 33 °F 52 °F 78 °F (1921)
Min Temperature 19 °F 32 °F 15 °F (1960)
Degree Days  
Heating Degree Days 39 23  
Month to date heating degree days 879 720  
Since 1 July heating degree days 5711 5187  
Cooling Degree Days 0 0  
Month to date cooling degree days 0 0  
Year to date cooling degree days 0 0  
Moisture  
Dew Point 9 °F    
Average Humidity 52    
Maximum Humidity 81    
Minimum Humidity 23    
Precipitation  
Precipitation T in 0.10 in 1.91 in (2002)
Month to date precipitation 0.73 2.42  
Year to date precipitation 4.53 7.46  
Snow  
Snow T in 0.20 in 2.50 in (1933)
Month to date snowfall 0.1 6.3  
Since 1 July snowfall 45.9 34.3  
Snow Depth T in    
Sea Level Pressure  
Sea Level Pressure 30.06 in    
Wind  
Wind Speed 13 mph (WNW)    
Max Wind Speed 25 mph    
Max Gust Speed 34 mph    
Visibility 8 miles    
Events Snow    
T = Trace of Precipitation, MM = Missing Value Source: NWS Daily Summary

Daily Weather History Graph

Daily Weather History Graph

Search for Another Location

Airport or City:

Trip Planner

Search our weather history database for the weather conditions in past years. The results will help you decide how hot, cold, wet, or windy it might be!

Date:

Astronomy

Mar. 26, 2014 Rise Set
Actual Time 7:00 AM EDT 7:26 PM EDT
Civil Twilight 6:33 AM EDT 7:54 PM EDT
Nautical Twilight 6:00 AM EDT 8:26 PM EDT
Astronomical Twilight 5:27 AM EDT 9:00 PM EDT
Moon 4:10 AM EDT (3/26) 3:00 PM EDT (3/26)
Length of Visible Light 13h 20m
Length of Day
12h 25m
Waning Crescent, 22% of the Moon is Illuminated
Mar 26
Waning Crescent
Mar 30
New
Apr 7
First Quarter
Apr 15
Full
Apr 22
Last Quarter

Hourly Weather History & Observations

Time (EDT) Temp. Windchill Dew Point Humidity Pressure Visibility Wind Dir Wind Speed Gust Speed Precip Events Conditions
12:54 AM 25.0 °F 19.3 °F 19.9 °F 81% 29.91 in 6.0 mi North 4.6 mph - N/A   Haze
1:14 AM 25.0 °F 20.7 °F 21.9 °F 88% 29.90 in 4.0 mi West 3.5 mph - 0.00 in Snow Light Snow
1:19 AM 26.1 °F - 21.9 °F 84% 29.90 in 1.8 mi Calm Calm - 0.00 in Snow Light Snow
1:26 AM 25.0 °F 20.7 °F 21.9 °F 88% 29.91 in 1.2 mi South 3.5 mph - 0.00 in Snow Light Snow
1:41 AM 26.1 °F 20.5 °F 24.1 °F 92% 29.90 in 3.0 mi South 4.6 mph - 0.00 in Snow Light Snow
1:49 AM 26.6 °F 21.2 °F 23.0 °F 86% 29.90 in 4.0 mi SSW 4.6 mph - 0.00 in Snow Light Snow
1:54 AM 27.0 °F 23.0 °F 23.0 °F 85% 29.92 in 5.0 mi SSW 3.5 mph - 0.00 in Snow Light Snow
2:54 AM 26.1 °F 16.2 °F 23.0 °F 88% 29.91 in - West 10.4 mph - 0.00 in   Mostly Cloudy
3:41 AM 27.0 °F 18.0 °F 21.0 °F 78% 29.91 in 4.0 mi NNW 9.2 mph 20.7 mph 0.00 in Snow Light Snow
3:54 AM 27.0 °F 18.7 °F 19.9 °F 75% 29.94 in 6.0 mi West 8.1 mph - 0.00 in Snow Light Snow
4:21 AM 26.1 °F 17.6 °F 16.0 °F 66% 29.93 in 10.0 mi WNW 8.1 mph - 0.00 in   Overcast
4:54 AM 25.0 °F 15.5 °F 15.1 °F 66% 29.96 in 10.0 mi WNW 9.2 mph - 0.00 in   Overcast
5:54 AM 25.0 °F 14.8 °F 12.9 °F 60% 29.99 in 10.0 mi NW 10.4 mph - N/A   Overcast
6:54 AM 24.1 °F 14.4 °F 14.0 °F 65% 30.02 in 10.0 mi WNW 9.2 mph - N/A   Overcast
7:54 AM 23.0 °F 10.1 °F 10.0 °F 58% 30.06 in 10.0 mi NW 15.0 mph - N/A   Mostly Cloudy
8:54 AM 21.9 °F 9.2 °F 7.0 °F 53% 30.09 in 10.0 mi NW 13.8 mph 25.3 mph N/A   Scattered Clouds
9:54 AM 25.0 °F 13.6 °F 5.0 °F 43% 30.10 in 10.0 mi NNW 12.7 mph 25.3 mph N/A   Partly Cloudy
10:54 AM 26.1 °F 12.7 °F -2.0 °F 30% 30.12 in 10.0 mi NW 18.4 mph - N/A   Clear
11:54 AM 27.0 °F 13.5 °F -2.0 °F 29% 30.14 in 10.0 mi NW 19.6 mph 33.4 mph N/A   Clear
12:54 PM 26.1 °F 13.6 °F -0.9 °F 31% 30.13 in 10.0 mi NNW 16.1 mph 27.6 mph N/A   Scattered Clouds
1:54 PM 30.0 °F 17.5 °F 1.9 °F 30% 30.13 in 10.0 mi WNW 19.6 mph 26.5 mph N/A   Partly Cloudy
2:54 PM 30.0 °F 17.9 °F -0.0 °F 28% 30.12 in 10.0 mi NW 18.4 mph 28.8 mph N/A   Partly Cloudy
3:54 PM 32.0 °F 19.8 °F -0.0 °F 26% 30.11 in 10.0 mi NW 20.7 mph 28.8 mph N/A   Clear
4:54 PM 33.1 °F 22.2 °F -0.9 °F 23% 30.12 in 10.0 mi NW 17.3 mph 26.5 mph N/A   Clear
5:54 PM 32.0 °F 20.5 °F -2.9 °F 22% 30.15 in 10.0 mi NW 18.4 mph 31.1 mph N/A   Clear
6:54 PM 28.9 °F 18.2 °F -2.0 °F 26% 30.18 in 10.0 mi NW 13.8 mph 21.9 mph N/A   Clear
7:54 PM 26.1 °F 16.2 °F -2.0 °F 30% 30.21 in - NW 10.4 mph - N/A   Clear
8:54 PM 25.0 °F 14.2 °F -0.9 °F 33% 30.25 in 10.0 mi NW 11.5 mph - N/A   Clear
9:54 PM 24.1 °F 14.4 °F 1.0 °F 37% 30.27 in 10.0 mi NW 9.2 mph - N/A   Clear
10:54 PM 21.9 °F 10.4 °F 1.0 °F 40% 30.30 in 10.0 mi WNW 11.5 mph - N/A   Clear
11:54 PM 21.0 °F 11.4 °F 1.9 °F 44% 30.31 in 10.0 mi NW 8.1 mph - N/A   Clear